Miscellaneous Local Product
Issued by NWS North Platte, NE

Home | Current Version | Previous Version | Graphics & Text | Print | Product List | Glossary On
Versions: 1 2 3 4 5 6 7 8 9 10 11 12 13 14 15 16 17 18 19 20 21 22 23 24 25 26 27 28 29 30 31 32 33 34 35 36 37 38 39 40 41 42 43 44 45 46 47 48 49 50
730
AXUS43 KLBF 270010
MISLBF


WESTERN AND NORTH CENTRAL NEBRASKA HOURLY WEATHER ROUNDUP
NATIONAL WEATHER SERVICE NORTH PLATTE NE
700 PM CDT THU MAY 26 2016

NOTE: "FAIR" INDICATES FEW OR NO CLOUDS BELOW 12,000 FEET WITH NO
SIGNIFICANT WEATHER AND/OR OBSTRUCTIONS TO VISIBILITY.

NOTE: STATIONS NOT REPORTING VARIABLES SUCH AS SKY/WEATHER OR
PRESSURE ARE PROVIDED BY RAWS AND APRS NETWORKS AND ARE NOT UNDER
NATIONAL WEATHER SERVICE QUALITY CONTROL.

...OBSERVATIONS IN AND NEAR THE EASTERN PANHANDLE OF NEBRASKA...

CITY           SKY/WX    TMP DP  RH WIND       PRES   REMARKS
PINE RIDGE     CLOUDY    65  47  52 SW7       29.82F
CHADRON        CLOUDY    67  48  50 SW7       29.83S
ALLIANCE       CLOUDY    62  41  46 N15G23    29.84F
SIDNEY         CLOUDY    60  41  49 N17       29.85F
BIG SPRINGS      N/A     74  44  34 N6          N/A
$$

...OBSERVATIONS IN NORTHERN NEBRASKA AND FAR SOUTHERN SOUTH DAKOTA...

CITY           SKY/WX    TMP DP  RH WIND       PRES   REMARKS
WINNER         FAIR      77  53  43 SE7       29.77S
VALENTINE      PTSUNNY   76  46  34 N9        29.77S
THEDFORD       MOSUNNY   77  47  35 NE7       29.78S
AINSWORTH      MOSUNNY   73  51  47 E7        29.79R
O`NEILL        CLOUDY    73  56  53 E10       29.80R
ORD            CLOUDY    73  52  47 E13       29.73F
BROKEN BOW     CLOUDY    74  49  41 E10G20    29.75S
BUTTE            N/A     71  58  64 E14         N/A
CHAMBERS         N/A     74  53  47 E6          N/A
EWING            N/A     74  58  56 E8          N/A
$$

...OBSERVATIONS IN SOUTHWEST NEBRASKA AND FAR NORTHEAST COLORADO...

CITY           SKY/WX    TMP DP  RH WIND       PRES   REMARKS
IMPERIAL       LGT RAIN  64  49  57 NE13      29.72F
OGALLALA       CLOUDY    68  46  44 N10       29.76F
NORTH PLATTE   CLOUDY    74  48  39 E14       29.74F
MCCOOK         PTSUNNY   69  58  67 E21G28    29.62F THUNDER
LEXINGTON      CLOUDY    71  58  64 E12       29.74R
PAXTON           N/A     77  47  34 E9          N/A
STAPLETON        N/A     74  49  41 NE6G13      N/A
GOTHENBURG       N/A     75  39  27 NE13        N/A
CALLAWAY         N/A     76  51  41 E8          N/A
$$

...OBSERVATIONS IN CENTRAL LINCOLN COUNTY AREA...

CITY           SKY/WX    TMP DP  RH WIND       PRES   REMARKS
N.P. AIRPORT   CLOUDY    74  48  39 E14       29.74F
N.P. DOWNTOWN    N/A     75  50  41 E9G17       N/A
N.P. SOUTHEAST   N/A     75  49  39 MISG        N/A
N.P. HILLCREST   N/A     74  48  39 NE14        N/A
$$

...SOME OBSERVATIONS FROM AROUND THE REGION...

CITY           SKY/WX    TMP DP  RH WIND       PRES   REMARKS
DENVER         LGT RAIN  46  43  89 NE18      29.91R
LARAMIE        CLOUDY    47  37  68 SE8       29.95F
CHEYENNE       CLOUDY    49  42  77 CALM      29.91F
SCOTTSBLUFF    CLOUDY    63  41  44 NW13      29.86S
RAPID CITY     CLOUDY    68  42  38 E6        29.82F
BISMARCK       MOSUNNY   69  49  48 NW9G18    29.75S
PIERRE         SUNNY     74  52  46 N10       29.74R
SIOUX FALLS    CLOUDY    71  56  58 E7        29.83R
OMAHA          LGT RAIN  65  58  78 E33G44    29.83R
GRAND ISLAND   CLOUDY    62  55  77 SW8       29.73F
KANSAS CITY    TSTM      63  59  87 NE20G25   29.82F
WICHITA        CLOUDY    83  68  60 S20G29    29.64F
OKLAHOMA CITY  MOSUNNY   81  63  54 S25G37    29.72S
DALLAS         MOSUNNY   78  66  66 SE24G32   29.77S
AMARILLO       SUNNY     83  27  13 SW17      29.70F
DODGE CITY     CLOUDY    72  64  76 SE13G31   29.53F
HAYS           PTSUNNY   63  57  82 SW12      29.66R
$$




USA.gov is the U.S. government's official web portal to all federal, state and local government web resources and services.